TimeMDT,TemperatureF,Dew PointF,Humidity,Sea Level PressureIn,VisibilityMPH,Wind Direction,Wind SpeedMPH,Gust SpeedMPH,PrecipitationIn,Events,Conditions,WindDirDegrees,DateUTC
12:53 AM,28.0,23.0,81,30.26,-9999.0,South,6.9,-,N/A,,Clear,190,2012-10-27 06:53:00
1:53 AM,28.9,23.0,78,30.24,-9999.0,SSW,5.8,-,N/A,,Clear,200,2012-10-27 07:53:00
2:53 AM,28.9,24.1,82,30.23,-9999.0,SSW,11.5,-,N/A,,Mostly Cloudy,200,2012-10-27 08:53:00
3:53 AM,28.9,24.1,82,30.22,-9999.0,SSW,9.2,-,N/A,,Mostly Cloudy,200,2012-10-27 09:53:00
4:53 AM,30.0,25.0,82,30.20,-9999.0,SSW,12.7,-,N/A,,Overcast,210,2012-10-27 10:53:00
5:53 AM,28.0,25.0,88,30.19,-9999.0,South,12.7,-,N/A,,Mostly Cloudy,190,2012-10-27 11:53:00
6:53 AM,27.0,25.0,92,30.22,-9999.0,SSW,11.5,-,N/A,,Overcast,210,2012-10-27 12:53:00
7:53 AM,28.9,25.0,85,30.23,-9999.0,West,13.8,-,N/A,,Overcast,270,2012-10-27 13:53:00
8:53 AM,28.9,25.0,85,30.24,-9999.0,West,9.2,17.3,N/A,,Mostly Cloudy,260,2012-10-27 14:53:00
9:53 AM,30.0,26.1,85,30.23,-9999.0,West,9.2,-,N/A,,Overcast,260,2012-10-27 15:53:00
10:53 AM,35.1,28.0,76,30.19,-9999.0,WSW,5.8,-,N/A,,Overcast,240,2012-10-27 16:53:00
11:53 AM,37.9,28.9,70,30.17,-9999.0,West,6.9,-,N/A,,Overcast,260,2012-10-27 17:53:00
12:53 PM,44.1,28.0,53,30.14,-9999.0,Calm,Calm,-,N/A,,Partly Cloudy,0,2012-10-27 18:53:00
1:53 PM,45.0,25.0,46,30.12,-9999.0,NNW,4.6,-,N/A,,Partly Cloudy,340,2012-10-27 19:53:00
2:53 PM,46.0,25.0,44,30.11,-9999.0,Variable,4.6,-,N/A,,Overcast,0,2012-10-27 20:53:00
3:53 PM,46.0,26.1,46,30.12,-9999.0,NW,4.6,-,N/A,,Mostly Cloudy,320,2012-10-27 21:53:00
4:53 PM,45.0,25.0,46,30.12,-9999.0,Calm,Calm,-,N/A,,Clear,0,2012-10-27 22:53:00
5:53 PM,41.0,28.9,62,30.15,-9999.0,SSW,3.5,-,N/A,,Scattered Clouds,210,2012-10-27 23:53:00
6:53 PM,39.9,27.0,60,30.18,-9999.0,South,3.5,-,N/A,,Partly Cloudy,190,2012-10-28 00:53:00
7:53 PM,36.0,26.1,67,30.19,-9999.0,SE,4.6,-,N/A,,Clear,140,2012-10-28 01:53:00
8:53 PM,36.0,27.0,70,30.21,-9999.0,South,6.9,-,N/A,,Clear,190,2012-10-28 02:53:00
10:53 PM,36.0,27.0,70,30.19,-9999.0,South,8.1,-,N/A,,Overcast,190,2012-10-28 04:53:00
11:53 PM,37.9,28.0,68,30.17,-9999.0,SSW,10.4,-,N/A,,Overcast,210,2012-10-28 05:53:00